Location: Newark
(29.9790°N, 31.1340°E)
Time: 15:57:53
(UTC+00:00)

Transit 2A Rocket - Pass Details

Date: 19 January 2020
Orbit: 592 x 911 km, 66.7° (Epoch: 16 February)

Event Time Altitude Azimuth Distance (km) Brightness Sun altitude
Rises 04:56:20 0° 235° (SW) 2,883 7.7 0.1°
Reaches altitude 10° 04:59:04 10° 251° (WSW) 1,949 6.7 0.7°
Maximum altitude 05:02:24 21° 301° (WNW) 1,335 5.7 1.3°
Drops below altitude 10° 05:05:43 10° 352° (N) 1,922 6.8 2.0°
Sets 05:08:24 0° 9° (N) 2,832 7.8 2.5°
